Flight Briefing for CMB827

Departure Arrival
Wake Island Airfield (PWAK)
Click to view FAA NOTAMS
Daniel K Inouye International Airport (PHNL)
Click to view FAA NOTAMS
Departure Time Arrival Time
N/A N/A
Aircraft Distance
B757-200SF 1998nm
Departure METAR Arrival METAR
PWAK 250358Z AUTO 07017KT 9000 HZ FEW026 29/21 A2994 RMK AO2 SLP145 T02870207 $ PHNL 250353Z 08013KT 10SM FEW025 FEW037 SCT080 29/19 A3004 RMK AO2 SLP172 T02940189 $
Suggested Route
AWK 2000N/17000E 2100N/18000E 2100N/17000W KATHS


View recent IFR Routes data
Notes
USTRANSCOM CONTRACT FLIGHT

Charts and Procedures

Charts for PWAK
No chart available
Charts for PHNL
No chart available

Windy.com Weather Map